Flag for China Weather past 2 weeks in Xiamen, Fujian, China

Now
72 °F

Clear.


Feels Like: 76 °F
Forecast: 53 / 60 °F
Wind: 6 mph from Northeast

Location: Xiamen Airport

Current Time: Mar 3, 2015 at 4:07:47 PM

Latest Report: Mar 3, 2015 at 3:00 PM


Visibility: 4 mi

Pressure: 29.83 "Hg

Humidity: 61%

Dew point: 57 °F

Location of XiamenLocation

Historic Weather in Xiamen — Graph

°F

Xiamen temperature yesterday

Maximum temperature yesterday: 61 °F (at 3:00 PM)
Minimum temperature yesterday: 52 °F (at 5:00 AM)
Average temperature yesterday: 56 °F

Past Weeks' High & Low Weather Summary

 TemperatureHumidityPressure
High73 °F (Feb 16, 4:00 PM)100% (Feb 16, 10:00 PM)30.27 "Hg (Feb 16, 10:00 PM)
Low52 °F (Mar 2, 5:00 AM)37% (Feb 19, 11:00 AM)29.83 "Hg (Mar 3, 2:00 PM)
Average61 °F79%30.06 "Hg
* Reported Feb 16 3:00 PM — Mar 3 3:00 PM, Xiamen, Weather by CustomWeather, © 2015

Note: Actual official high and low records may vary slightly from our data, if they occured in-between our weather recording intervals... More about our weather records

Advertising

Xiamen weather history for previous 24 hours

 ConditionsComfort  
Time TempWeatherWind HumidityBarometerVisibility
3:00 PM
Tue, Mar 3
72 °FClear.6 mph61%29.83 "Hg4 mi
2:00 PM72 °FClear.3 mph61%29.83 "Hg4 mi
1:00 PM72 °FClear.3 mph57%29.89 "Hg4 mi
12:00 PM68 °FClear.6 mph60%29.92 "Hg4 mi
11:00 AM66 °FClear.6 mph64%29.95 "Hg4 mi
10:00 AM63 °FClear.3 mph73%29.95 "Hg4 mi
9:00 AM61 °FClear.3 mph72%29.98 "Hg4 mi
8:00 AM59 °FClear.1 mph77%29.98 "Hg4 mi
7:00 AM59 °FFog.1 mph77%29.95 "Hg3 mi
6:00 AM59 °FFog.3 mph77%29.95 "Hg3 mi
5:00 AM57 °FFog.1 mph82%29.95 "Hg3 mi
4:00 AM59 °FFog.1 mph77%29.95 "Hg3 mi
3:00 AM59 °FFog.3 mph77%29.98 "Hg3 mi
2:00 AM57 °FFog.1 mph82%30.01 "Hg3 mi
1:00 AM57 °FFog.1 mph77%30.01 "Hg3 mi
12:00 AM59 °FFog.3 mph72%30.01 "Hg3 mi
11:00 PM
Mon, Mar 2
57 °FOvercast.3 mph77%29.98 "Hg4 mi
10:00 PM57 °FPassing clouds.6 mph77%29.98 "Hg4 mi
9:00 PM57 °FPassing clouds.6 mph77%29.98 "Hg4 mi
8:00 PM57 °FPassing clouds.6 mph77%29.98 "Hg4 mi
7:00 PM59 °FPassing clouds.6 mph68%29.98 "Hg5 mi
6:00 PM59 °FPartly sunny.3 mph68%29.98 "Hg5 mi
5:00 PM59 °FPartly sunny.6 mph68%29.98 "Hg5 mi
4:00 PM61 °FPartly sunny.3 mph63%30.01 "HgN/A
Weather by CustomWeather, © 2015

See weather overviewHow to use our weather pages